Time,TemperatureF,DewpointF,PressureIn,WindDirection,WindDirectionDegrees,WindSpeedMPH,WindSpeedGustMPH,Humidity,HourlyPrecipIn,Conditions,Clouds,dailyrainin,SoftwareType,DateUTC
2013-03-08 00:01:00,26.0,24.0,30.09,ENE,57,0.0,-999.0,93,-99.99,,,-99.99,,2013-03-08 08:01:00,
2013-03-08 00:11:00,26.0,24.0,30.09,ENE,57,0.0,-999.0,93,-99.99,,,-99.99,,2013-03-08 08:11:00,
2013-03-08 00:21:00,26.0,24.0,30.09,ENE,57,0.0,-999.0,93,-99.99,,,-99.99,,2013-03-08 08:21:00,
2013-03-08 00:31:00,26.0,25.0,30.09,ENE,57,0.0,-999.0,94,-99.99,,,-99.99,,2013-03-08 08:31:00,
2013-03-08 00:41:00,26.0,25.0,30.09,ENE,57,0.0,-999.0,94,-99.99,,,-99.99,,2013-03-08 08:41:00,
2013-03-08 00:52:00,25.0,23.0,30.09,ENE,57,0.0,-999.0,93,-99.99,,,-99.99,,2013-03-08 08:52:00,
2013-03-08 01:02:00,25.0,23.0,30.09,ENE,57,0.0,-999.0,93,-99.99,,,-99.99,,2013-03-08 09:02:00,
2013-03-08 01:11:00,25.0,23.0,30.09,ENE,57,0.0,-999.0,93,-99.99,,,-99.99,,2013-03-08 09:11:00,
2013-03-08 01:21:00,25.0,23.0,30.09,ENE,57,0.0,-999.0,93,-99.99,,,-99.99,,2013-03-08 09:21:00,
2013-03-08 01:31:00,24.0,22.0,30.09,ENE,57,0.0,-999.0,93,-99.99,,,-99.99,,2013-03-08 09:31:00,
2013-03-08 01:41:00,24.0,22.0,30.09,ENE,57,0.0,-999.0,93,-99.99,,,-99.99,,2013-03-08 09:41:00,
2013-03-08 01:51:00,24.0,22.0,30.09,ENE,57,0.0,-999.0,93,-99.99,,,-99.99,,2013-03-08 09:51:00,
2013-03-08 02:01:00,24.0,23.0,30.09,ENE,57,0.0,-999.0,94,-99.99,,,-99.99,,2013-03-08 10:01:00,
2013-03-08 02:11:00,24.0,23.0,30.09,ENE,57,0.0,-999.0,94,-99.99,,,-99.99,,2013-03-08 10:11:00,
2013-03-08 02:21:00,23.0,22.0,30.09,ENE,57,0.0,-999.0,94,-99.99,,,-99.99,,2013-03-08 10:21:00,
2013-03-08 02:31:00,23.0,22.0,30.09,ENE,57,0.0,-999.0,94,-99.99,,,-99.99,,2013-03-08 10:31:00,
2013-03-08 02:41:00,23.0,22.0,30.09,ENE,57,0.0,-999.0,94,-99.99,,,-99.99,,2013-03-08 10:41:00,
2013-03-08 02:51:00,23.0,22.0,30.09,ENE,57,0.0,-999.0,94,-99.99,,,-99.99,,2013-03-08 10:51:00,
2013-03-08 03:01:00,23.0,22.0,30.09,ENE,57,0.0,-999.0,94,-99.99,,,-99.99,,2013-03-08 11:01:00,
2013-03-08 03:11:00,23.0,22.0,30.09,ENE,57,0.0,-999.0,94,-99.99,,,-99.99,,2013-03-08 11:11:00,
2013-03-08 03:21:00,23.0,22.0,30.09,ENE,57,0.0,-999.0,94,-99.99,,,-99.99,,2013-03-08 11:21:00,
2013-03-08 03:32:00,23.0,22.0,30.09,ENE,57,0.0,-999.0,94,-99.99,,,-99.99,,2013-03-08 11:32:00,
2013-03-08 03:41:00,23.0,22.0,30.09,ENE,57,0.0,-999.0,94,-99.99,,,-99.99,,2013-03-08 11:41:00,
2013-03-08 03:52:00,22.0,21.0,30.09,ENE,57,0.0,-999.0,94,-99.99,,,-99.99,,2013-03-08 11:52:00,
2013-03-08 04:01:00,21.0,20.0,30.09,ENE,57,0.0,-999.0,94,-99.99,,,-99.99,,2013-03-08 12:01:00,
2013-03-08 04:11:00,21.0,20.0,30.09,ENE,57,0.0,-999.0,94,-99.99,,,-99.99,,2013-03-08 12:11:00,
2013-03-08 04:22:00,21.0,20.0,30.09,ENE,57,0.0,-999.0,94,-99.99,,,-99.99,,2013-03-08 12:22:00,
2013-03-08 04:32:00,21.0,20.0,30.09,ENE,57,0.0,-999.0,94,-99.99,,,-99.99,,2013-03-08 12:32:00,
2013-03-08 04:42:00,21.0,20.0,30.09,ENE,57,0.0,-999.0,94,-99.99,,,-99.99,,2013-03-08 12:42:00,
2013-03-08 04:52:00,20.0,19.0,30.09,ENE,57,0.0,-999.0,94,-99.99,,,-99.99,,2013-03-08 12:52:00,
2013-03-08 05:01:00,20.0,19.0,30.09,ENE,57,0.0,-999.0,94,-99.99,,,-99.99,,2013-03-08 13:01:00,
2013-03-08 05:11:00,20.0,19.0,30.09,ENE,57,0.0,-999.0,94,-99.99,,,-99.99,,2013-03-08 13:11:00,
2013-03-08 05:21:00,20.0,19.0,30.09,ENE,57,0.0,-999.0,94,-99.99,,,-99.99,,2013-03-08 13:21:00,
2013-03-08 05:32:00,20.0,19.0,30.09,ENE,57,0.0,-999.0,94,-99.99,,,-99.99,,2013-03-08 13:32:00,
2013-03-08 05:42:00,20.0,19.0,30.09,ENE,57,0.0,-999.0,94,-99.99,,,-99.99,,2013-03-08 13:42:00,
2013-03-08 05:52:00,20.0,19.0,30.09,ENE,57,0.0,-999.0,94,-99.99,,,-99.99,,2013-03-08 13:52:00,
2013-03-08 06:02:00,20.0,19.0,30.09,ENE,57,0.0,-999.0,94,-99.99,,,-99.99,,2013-03-08 14:02:00,
2013-03-08 06:11:00,20.0,19.0,30.09,ENE,57,0.0,-999.0,94,-99.99,,,-99.99,,2013-03-08 14:11:00,
2013-03-08 06:21:00,20.0,19.0,30.10,ENE,57,0.0,-999.0,95,-99.99,,,-99.99,,2013-03-08 14:21:00,
2013-03-08 06:32:00,20.0,19.0,30.10,ENE,57,0.0,-999.0,94,-99.99,,,-99.99,,2013-03-08 14:32:00,
2013-03-08 06:42:00,20.0,19.0,30.10,ENE,57,0.0,-999.0,94,-99.99,,,-99.99,,2013-03-08 14:42:00,
2013-03-08 06:52:00,19.0,18.0,30.10,ENE,57,0.0,-999.0,94,-99.99,,,-99.99,,2013-03-08 14:52:00,
2013-03-08 07:02:00,20.0,19.0,30.10,ENE,57,0.0,-999.0,94,-99.99,,,-99.99,,2013-03-08 15:02:00,
2013-03-08 07:11:00,20.0,19.0,30.10,ENE,57,0.0,-999.0,94,-99.99,,,-99.99,,2013-03-08 15:11:00,
2013-03-08 07:21:00,20.0,19.0,30.10,ENE,57,0.0,-999.0,94,-99.99,,,-99.99,,2013-03-08 15:21:00,
2013-03-08 07:31:00,21.0,20.0,30.10,ENE,57,0.0,-999.0,94,-99.99,,,-99.99,,2013-03-08 15:31:00,
2013-03-08 07:42:00,21.0,20.0,30.10,ENE,57,0.0,-999.0,94,-99.99,,,-99.99,,2013-03-08 15:42:00,
2013-03-08 07:52:00,22.0,21.0,30.11,ENE,57,0.0,-999.0,94,-99.99,,,-99.99,,2013-03-08 15:52:00,
2013-03-08 08:01:00,25.0,24.0,30.11,ENE,57,0.0,-999.0,96,-99.99,,,-99.99,,2013-03-08 16:01:00,
2013-03-08 08:11:00,25.0,24.0,30.11,ENE,57,0.0,-999.0,96,-99.99,,,-99.99,,2013-03-08 16:11:00,
2013-03-08 08:21:00,24.0,23.0,30.11,ENE,57,0.0,-999.0,94,-99.99,,,-99.99,,2013-03-08 16:21:00,
2013-03-08 08:31:00,25.0,24.0,30.11,ENE,57,0.0,-999.0,94,-99.99,,,-99.99,,2013-03-08 16:31:00,
2013-03-08 08:41:00,25.0,24.0,30.11,ENE,57,0.0,-999.0,94,-99.99,,,-99.99,,2013-03-08 16:41:00,
2013-03-08 08:51:00,29.0,27.0,30.11,ENE,57,0.0,-999.0,94,-99.99,,,-99.99,,2013-03-08 16:51:00,
2013-03-08 09:02:00,31.0,28.0,30.11,ENE,57,0.0,-999.0,88,-99.99,,,-99.99,,2013-03-08 17:02:00,
2013-03-08 09:11:00,31.0,28.0,30.11,ENE,57,0.0,-999.0,88,-99.99,,,-99.99,,2013-03-08 17:11:00,
2013-03-08 09:21:00,33.0,28.0,30.11,ENE,57,0.0,-999.0,82,-99.99,,,-99.99,,2013-03-08 17:21:00,
2013-03-08 09:31:00,33.0,27.0,30.11,ENE,57,0.0,-999.0,79,-99.99,,,-99.99,,2013-03-08 17:31:00,
2013-03-08 09:41:00,33.0,27.0,30.11,ENE,57,0.0,-999.0,79,-99.99,,,-99.99,,2013-03-08 17:41:00,
2013-03-08 09:52:00,35.0,29.0,30.10,WNW,282,0.0,-999.0,77,-99.99,,,-99.99,,2013-03-08 17:52:00,
2013-03-08 10:01:00,35.0,29.0,30.10,WNW,282,0.0,-999.0,77,-99.99,,,-99.99,,2013-03-08 18:01:00,
2013-03-08 10:11:00,35.0,29.0,30.10,WNW,282,0.0,-999.0,77,-99.99,,,-99.99,,2013-03-08 18:11:00,
2013-03-08 10:21:00,37.0,28.0,30.10,South,180,0.0,-999.0,70,-99.99,,,-99.99,,2013-03-08 18:21:00,
2013-03-08 10:31:00,38.0,29.0,30.10,South,180,0.0,-999.0,69,-99.99,,,-99.99,,2013-03-08 18:31:00,
2013-03-08 10:42:00,38.0,29.0,30.10,South,180,0.0,-999.0,69,-99.99,,,-99.99,,2013-03-08 18:42:00,
2013-03-08 10:51:00,39.0,29.0,30.09,South,180,1.0,-999.0,66,-99.99,,,-99.99,,2013-03-08 18:51:00,
2013-03-08 11:01:00,39.0,29.0,30.09,South,180,1.0,-999.0,67,-99.99,,,-99.99,,2013-03-08 19:01:00,
2013-03-08 11:11:00,39.0,29.0,30.09,South,180,1.0,-999.0,67,-99.99,,,-99.99,,2013-03-08 19:11:00,
2013-03-08 11:21:00,40.0,29.0,30.09,South,191,2.0,-999.0,64,-99.99,,,-99.99,,2013-03-08 19:21:00,
2013-03-08 11:31:00,40.0,28.0,30.09,South,180,2.0,-999.0,62,-99.99,,,-99.99,,2013-03-08 19:31:00,
2013-03-08 11:41:00,40.0,28.0,30.09,South,180,2.0,-999.0,62,-99.99,,,-99.99,,2013-03-08 19:41:00,
2013-03-08 11:51:00,41.0,29.0,30.09,South,174,1.0,-999.0,62,-99.99,,,-99.99,,2013-03-08 19:51:00,
2013-03-08 12:01:00,42.0,30.0,30.09,SW,230,2.0,-999.0,62,-99.99,,,-99.99,,2013-03-08 20:01:00,
2013-03-08 12:11:00,42.0,30.0,30.09,SW,230,2.0,-999.0,62,-99.99,,,-99.99,,2013-03-08 20:11:00,
2013-03-08 12:21:00,42.0,28.0,30.08,WNW,303,2.0,-999.0,57,-99.99,,,-99.99,,2013-03-08 20:21:00,
2013-03-08 12:31:00,44.0,30.0,30.08,WNW,290,2.0,-999.0,57,-99.99,,,-99.99,,2013-03-08 20:31:00,
2013-03-08 12:41:00,44.0,30.0,30.08,WNW,290,2.0,-999.0,57,-99.99,,,-99.99,,2013-03-08 20:41:00,
2013-03-08 12:52:00,44.0,31.0,30.08,NW,307,2.0,-999.0,59,-99.99,,,-99.99,,2013-03-08 20:52:00,
2013-03-08 13:01:00,43.0,30.0,30.07,WNW,298,4.0,-999.0,59,-99.99,,,-99.99,,2013-03-08 21:01:00,
2013-03-08 13:11:00,43.0,30.0,30.07,WNW,298,4.0,-999.0,59,-99.99,,,-99.99,,2013-03-08 21:11:00,
2013-03-08 13:21:00,44.0,30.0,30.07,WNW,292,4.0,-999.0,58,-99.99,,,-99.99,,2013-03-08 21:21:00,
2013-03-08 13:32:00,44.0,30.0,30.07,West,280,5.0,-999.0,58,-99.99,,,-99.99,,2013-03-08 21:32:00,
2013-03-08 13:41:00,44.0,30.0,30.07,West,280,5.0,-999.0,58,-99.99,,,-99.99,,2013-03-08 21:41:00,
2013-03-08 13:51:00,44.0,28.0,30.06,NW,304,4.0,-999.0,52,-99.99,,,-99.99,,2013-03-08 21:51:00,
2013-03-08 14:01:00,45.0,30.0,30.06,WSW,256,4.0,-999.0,55,-99.99,,,-99.99,,2013-03-08 22:01:00,
2013-03-08 14:11:00,45.0,30.0,30.06,WSW,256,4.0,-999.0,55,-99.99,,,-99.99,,2013-03-08 22:11:00,
2013-03-08 14:21:00,44.0,27.0,30.06,WNW,293,5.0,-999.0,51,-99.99,,,-99.99,,2013-03-08 22:21:00,
2013-03-08 14:32:00,45.0,27.0,30.06,NW,309,4.0,-999.0,50,-99.99,,,-99.99,,2013-03-08 22:32:00,
2013-03-08 14:41:00,45.0,27.0,30.06,NW,309,4.0,-999.0,50,-99.99,,,-99.99,,2013-03-08 22:41:00,
2013-03-08 14:52:00,45.0,27.0,30.06,West,278,6.0,-999.0,50,-99.99,,,-99.99,,2013-03-08 22:52:00,
2013-03-08 15:01:00,45.0,28.0,30.06,WNW,296,5.0,-999.0,52,-99.99,,,-99.99,,2013-03-08 23:01:00,
2013-03-08 15:11:00,45.0,28.0,30.06,WNW,296,5.0,-999.0,52,-99.99,,,-99.99,,2013-03-08 23:11:00,
2013-03-08 15:21:00,45.0,29.0,30.06,WNW,296,6.0,-999.0,53,-99.99,,,-99.99,,2013-03-08 23:21:00,
2013-03-08 15:31:00,45.0,29.0,30.06,NW,311,6.0,-999.0,54,-99.99,,,-99.99,,2013-03-08 23:31:00,
2013-03-08 15:41:00,45.0,29.0,30.06,NW,311,6.0,-999.0,54,-99.99,,,-99.99,,2013-03-08 23:41:00,
2013-03-08 15:52:00,45.0,30.0,30.06,WNW,296,6.0,-999.0,56,-99.99,,,-99.99,,2013-03-08 23:52:00,
2013-03-08 16:01:00,45.0,31.0,30.06,West,281,6.0,-999.0,57,-99.99,,,-99.99,,2013-03-09 00:01:00,
2013-03-08 16:11:00,45.0,31.0,30.06,West,281,6.0,-999.0,57,-99.99,,,-99.99,,2013-03-09 00:11:00,
2013-03-08 16:21:00,45.0,31.0,30.07,West,262,5.0,-999.0,58,-99.99,,,-99.99,,2013-03-09 00:21:00,
2013-03-08 16:31:00,44.0,31.0,30.07,West,279,6.0,-999.0,60,-99.99,,,-99.99,,2013-03-09 00:31:00,
2013-03-08 16:41:00,44.0,31.0,30.07,West,279,6.0,-999.0,60,-99.99,,,-99.99,,2013-03-09 00:41:00,
2013-03-08 16:51:00,44.0,31.0,30.07,WNW,300,6.0,-999.0,61,-99.99,,,-99.99,,2013-03-09 00:51:00,
2013-03-08 17:01:00,44.0,32.0,30.07,WNW,291,5.0,-999.0,62,-99.99,,,-99.99,,2013-03-09 01:01:00,
2013-03-08 17:12:00,43.0,32.0,30.08,WNW,286,4.0,-999.0,64,-99.99,,,-99.99,,2013-03-09 01:12:00,
2013-03-08 17:21:00,43.0,32.0,30.08,WNW,286,4.0,-999.0,64,-99.99,,,-99.99,,2013-03-09 01:21:00,
2013-03-08 17:31:00,43.0,32.0,30.08,WNW,287,3.0,-999.0,65,-99.99,,,-99.99,,2013-03-09 01:31:00,
2013-03-08 17:41:00,43.0,32.0,30.08,WNW,287,3.0,-999.0,65,-99.99,,,-99.99,,2013-03-09 01:41:00,
2013-03-08 17:51:00,42.0,31.0,30.09,West,276,3.0,-999.0,65,-99.99,,,-99.99,,2013-03-09 01:51:00,
2013-03-08 18:01:00,41.0,31.0,30.09,WNW,296,3.0,-999.0,67,-99.99,,,-99.99,,2013-03-09 02:01:00,
2013-03-08 18:11:00,41.0,31.0,30.09,WNW,296,3.0,-999.0,67,-99.99,,,-99.99,,2013-03-09 02:11:00,
2013-03-08 18:21:00,40.0,30.0,30.10,WNW,283,2.0,-999.0,67,-99.99,,,-99.99,,2013-03-09 02:21:00,
2013-03-08 18:31:00,39.0,30.0,30.11,WNW,283,0.0,-999.0,70,-99.99,,,-99.99,,2013-03-09 02:31:00,
2013-03-08 18:41:00,38.0,29.0,30.11,WNW,283,0.0,-999.0,70,-99.99,,,-99.99,,2013-03-09 02:41:00,
2013-03-08 18:51:00,38.0,29.0,30.11,WNW,283,0.0,-999.0,70,-99.99,,,-99.99,,2013-03-09 02:51:00,
2013-03-08 19:01:00,38.0,29.0,30.12,WNW,283,0.0,-999.0,70,-99.99,,,-99.99,,2013-03-09 03:01:00,
2013-03-08 19:11:00,38.0,29.0,30.12,WNW,283,0.0,-999.0,70,-99.99,,,-99.99,,2013-03-09 03:11:00,
2013-03-08 19:21:00,37.0,27.0,30.12,WNW,283,1.0,-999.0,68,-99.99,,,-99.99,,2013-03-09 03:21:00,
2013-03-08 19:31:00,37.0,28.0,30.14,WNW,283,0.0,-999.0,69,-99.99,,,-99.99,,2013-03-09 03:31:00,
2013-03-08 19:41:00,37.0,28.0,30.14,WNW,283,0.0,-999.0,69,-99.99,,,-99.99,,2013-03-09 03:41:00,
2013-03-08 19:52:00,35.0,27.0,30.14,WNW,283,0.0,-999.0,72,-99.99,,,-99.99,,2013-03-09 03:52:00,
2013-03-08 20:01:00,34.0,27.0,30.14,WNW,283,0.0,-999.0,75,-99.99,,,-99.99,,2013-03-09 04:01:00,
2013-03-08 20:11:00,34.0,27.0,30.14,WNW,283,0.0,-999.0,75,-99.99,,,-99.99,,2013-03-09 04:11:00,
2013-03-08 20:22:00,32.0,26.0,30.15,WNW,283,0.0,-999.0,77,-99.99,,,-99.99,,2013-03-09 04:22:00,
2013-03-08 20:31:00,32.0,27.0,30.16,WNW,283,0.0,-999.0,80,-99.99,,,-99.99,,2013-03-09 04:31:00,
2013-03-08 20:41:00,32.0,27.0,30.16,WNW,283,0.0,-999.0,80,-99.99,,,-99.99,,2013-03-09 04:41:00,
2013-03-08 20:51:00,31.0,26.0,30.17,WNW,283,0.0,-999.0,82,-99.99,,,-99.99,,2013-03-09 04:51:00,
2013-03-08 21:01:00,29.0,25.0,30.17,WNW,283,0.0,-999.0,84,-99.99,,,-99.99,,2013-03-09 05:01:00,
2013-03-08 21:11:00,29.0,25.0,30.17,WNW,283,0.0,-999.0,84,-99.99,,,-99.99,,2013-03-09 05:11:00,
2013-03-08 21:21:00,29.0,25.0,30.17,WNW,283,0.0,-999.0,86,-99.99,,,-99.99,,2013-03-09 05:21:00,
2013-03-08 21:31:00,28.0,25.0,30.18,WNW,283,0.0,-999.0,87,-99.99,,,-99.99,,2013-03-09 05:31:00,
2013-03-08 21:42:00,28.0,25.0,30.18,WNW,283,0.0,-999.0,87,-99.99,,,-99.99,,2013-03-09 05:42:00,
2013-03-08 21:52:00,28.0,25.0,30.18,WNW,283,0.0,-999.0,88,-99.99,,,-99.99,,2013-03-09 05:52:00,
2013-03-08 22:01:00,27.0,24.0,30.19,WNW,283,0.0,-999.0,89,-99.99,,,-99.99,,2013-03-09 06:01:00,
2013-03-08 22:11:00,27.0,24.0,30.19,WNW,283,0.0,-999.0,90,-99.99,,,-99.99,,2013-03-09 06:11:00,
2013-03-08 22:22:00,27.0,24.0,30.19,WNW,283,0.0,-999.0,90,-99.99,,,-99.99,,2013-03-09 06:22:00,
2013-03-08 22:31:00,27.0,24.0,30.19,WNW,283,0.0,-999.0,90,-99.99,,,-99.99,,2013-03-09 06:31:00,
2013-03-08 22:41:00,27.0,24.0,30.19,WNW,283,0.0,-999.0,90,-99.99,,,-99.99,,2013-03-09 06:41:00,
2013-03-08 22:51:00,26.0,24.0,30.21,WNW,283,0.0,-999.0,91,-99.99,,,-99.99,,2013-03-09 06:51:00,
2013-03-08 23:01:00,26.0,24.0,30.21,WNW,283,0.0,-999.0,91,-99.99,,,-99.99,,2013-03-09 07:01:00,
2013-03-08 23:11:00,26.0,24.0,30.21,WNW,283,0.0,-999.0,91,-99.99,,,-99.99,,2013-03-09 07:11:00,
2013-03-08 23:21:00,25.0,23.0,30.21,WNW,283,0.0,-999.0,91,-99.99,,,-99.99,,2013-03-09 07:21:00,
2013-03-08 23:31:00,25.0,23.0,30.21,WNW,283,0.0,-999.0,92,-99.99,,,-99.99,,2013-03-09 07:31:00,
2013-03-08 23:41:00,25.0,23.0,30.21,WNW,283,0.0,-999.0,92,-99.99,,,-99.99,,2013-03-09 07:41:00,
2013-03-08 23:51:00,25.0,23.0,30.22,WNW,283,0.0,-999.0,92,-99.99,,,-99.99,,2013-03-09 07:51:00,